1998-067JU

Last updated on June 13, 2016, 5:36 p.m. UTC

1 41570U 98067JU  16165.28884325  .00016427  00000-0  23802-3 0  9994
2 41570  51.6450  77.3672 0002110  88.1132 352.8332 15.56007362  1922

Satellite is not in orbit.